Location: Morisset
(33.1080°S, 151.4871°E)
Time: 09:12:19
(UTC+00:00)

BREEZE-M DEB (TANK) - Pass Details

Date: 29 October 2020
Orbit: 262 x 13077 km, 49.6° (Epoch: 27 November)

Event Time Altitude Azimuth Distance (km) Brightness Sun altitude
Exits shadow 18:10:53 12° 286° (WNW) 2,392 4.9 -9.8°
Maximum altitude 18:14:52 31° 225° (SW) 860 3.1 -9.1°
Drops below altitude 10° 18:17:07 10° 157° (SSE) 1,281 4.9 -8.6°
Sets 18:18:40 0° 143° (SE) 1,982 6.3 -8.3°
